DIRECTV 12

Last updated on Thu Oct 30 2025 00:02:48 GMT+0000 (Coordinated Universal Time)

1 36131U 09075A 25302.30794007 -.00000094 00000+0 00000+0 0 9999 2 36131 0.0279 68.7696 0000592 183.6894 153.6004 1.00271887 44237
UTC large
Height (km)
Speed (km/s)
/
Latitude / Longitude
Inclination (degrees)
Orbital Period (minutes)
Azimuth
Elevation
Range (km)
Doppler Factor

Next 0 passes for location: London (51.5072 / 0.1276)

Sorry there are no passes over London.